CCA3322 ZUCK-ZUUU

Flight info

Callsign CCA3322
Flight time N/A
Altitude 18900
Route ZUCK DCT ZUUU
Aircraft A320/M-SDE1GH/LB1

Departure

Time 2026-04-28 12:26
Airport Chongqing Jiangbei International Airport (ZUCK)

Arrival

Time N/A
Airport Chengdu Shuangliu International Airport (ZUUU)
Time Latitude Longitude Altitude Speed Heading
2026-04-28 12:18 29.71467 106.63599 1374 ft 0 kts 326°
2026-04-28 12:20 29.71459 106.63606 1370 ft 3 kts 328°
2026-04-28 12:20 29.71439 106.63618 1370 ft 3 kts 336°
2026-04-28 12:21 29.71420 106.63626 1373 ft 3 kts 350°
2026-04-28 12:21 29.71405 106.63627 1372 ft 2 kts
2026-04-28 12:21 29.71395 106.63624 1372 ft 2 kts 37°
2026-04-28 12:21 29.71387 106.63614 1370 ft 2 kts 67°
2026-04-28 12:22 29.71384 106.63602 1371 ft 2 kts 87°
2026-04-28 12:22 29.71384 106.63589 1370 ft 2 kts 99°
2026-04-28 12:22 29.71385 106.63582 1370 ft 0 kts 104°
2026-04-28 12:23 29.71384 106.63588 1370 ft 2 kts 104°
2026-04-28 12:23 29.71372 106.63641 1372 ft 12 kts 104°
2026-04-28 12:23 29.71334 106.63729 1372 ft 15 kts 153°
2026-04-28 12:24 29.71217 106.63699 1372 ft 22 kts 197°
2026-04-28 12:24 29.71044 106.63639 1372 ft 28 kts 197°
2026-04-28 12:24 29.70860 106.63574 1372 ft 25 kts 197°
2026-04-28 12:24 29.70747 106.63570 1373 ft 12 kts 127°
2026-04-28 12:25 29.70724 106.63666 1371 ft 14 kts 105°
2026-04-28 12:25 29.70730 106.63742 1372 ft 7 kts 31°
2026-04-28 12:25 29.70933 106.63811 1372 ft 68 kts 16°
2026-04-28 12:25 29.71646 106.64058 1375 ft 144 kts 17°
2026-04-28 12:26 29.72760 106.64446 1817 ft 181 kts 17°
2026-04-28 12:26 29.74025 106.64885 2549 ft 197 kts 17°
2026-04-28 12:26 29.75367 106.65351 3384 ft 205 kts 17°
2026-04-28 12:26 29.76739 106.65829 4218 ft 211 kts 17°
2026-04-28 12:27 29.78164 106.66325 5044 ft 221 kts 16°
2026-04-28 12:27 29.79754 106.66572 5838 ft 241 kts 357°